Sensation — C6FM8 — position and weather

sailwx.info

Track history (hours):
 
Tides and Currents Weather Stations Pressure Air Temp Water Temp Dewpoint Dewpoint Depression Visibility Wind Speed Wind Dir Waves Ship Positions

Sensation

Last reported at 2017-Apr-25 00:13 UTC. Time now 2017-Apr-25 02:52 UTC.
Position N 26°12' W 079°18'.

Type: Passenger vessel. MMSI: 309697000.

Date/timePositionNaut miles runAvg speedWind from/ knotsBaromVisibWave heightAir tempDewpointWater temp
2017-Apr-25 00:13N 26°12' W 079°18'315.2
2017-Apr-24 23:59N 26°10' W 079°21'715.6
2017-Apr-24 23:30N 26°06' W 079°28'815.6
2017-Apr-24 23:00N 26°02' W 079°36'816.8
2017-Apr-24 22:30N 25°56' W 079°42'918.4
2017-Apr-24 22:00N 25°52' W 079°52'918.6
2017-Apr-24 21:30N 25°48' W 080°01'713.2
2017-Apr-24 21:00N 25°46' W 080°08'2 4.5
2017-Apr-24 20:28N 25°47' W 080°10'0 0.0
2017-Apr-24 19:58N 25°47' W 080°10'0 0.0
2017-Apr-24 19:28N 25°47' W 080°10'0 0.0
2017-Apr-24 18:58N 25°47' W 080°10'0 0.0
2017-Apr-24 18:25N 25°47' W 080°10'0 0.0
2017-Apr-24 17:58N 25°47' W 080°10'0 0.0
2017-Apr-24 17:25N 25°47' W 080°10'0 0.0
2017-Apr-24 16:55N 25°47' W 080°10'0 0.0
2017-Apr-24 16:28N 25°47' W 080°10'0 0.0
2017-Apr-24 15:58N 25°47' W 080°10'0 0.0
2017-Apr-24 15:28N 25°47' W 080°10'0 0.0
2017-Apr-24 14:58N 25°47' W 080°10'0 0.0
2017-Apr-24 14:28N 25°47' W 080°10'0 0.0
2017-Apr-24 13:28N 25°47' W 080°10'0 0.0
2017-Apr-24 12:58N 25°47' W 080°10'0 0.0
2017-Apr-24 12:28N 25°47' W 080°10'0 0.0
2017-Apr-24 11:58N 25°47' W 080°10'0 0.5
2017-Apr-24 11:31N 25°47' W 080°10'1 2.2
2017-Apr-24 11:01N 25°46' W 080°09'510.9
2017-Apr-24 10:30N 25°46' W 080°03'510.7
2017-Apr-24 10:01N 25°44' W 079°58'4 8.4
2017-Apr-24 09:31N 25°40' W 079°57'612.0
2017-Apr-24 09:01N 25°34' W 079°56'611.8
2017-Apr-24 08:30N 25°28' W 079°56'4011.4
2017-Apr-24 05:00N 24°48' W 080°00'6120.2 310 / 101007.010.8 24.022.525.4
2017-Apr-24 02:00N 24°06' W 080°48'18118.1 350 / 151010.010.8 26.024.625.0
2017-Apr-23 16:00N 23°06' W 083°54'22317.2 320 / 101010.010.8 26.024.625.0
2017-Apr-23 03:01N 20°39' W 086°55'018.6
2017-Apr-23 03:00N 20°39' W 086°55'715.0
2017-Apr-23 02:31N 20°33' W 086°59'4 7.8
2017-Apr-23 02:00N 20°29' W 086°59'0 0.4
2017-Apr-23 01:29N 20°29' W 086°59'0 0.0
2017-Apr-23 00:59N 20°29' W 086°59'0 0.0
2017-Apr-23 00:23N 20°29' W 086°59'0 0.0
2017-Apr-22 23:59N 20°29' W 086°59'0 0.0
2017-Apr-22 23:28N 20°29' W 086°59'0 0.0
2017-Apr-22 22:58N 20°29' W 086°59'0 0.0
2017-Apr-22 22:28N 20°29' W 086°59'0 0.0
2017-Apr-22 21:58N 20°29' W 086°59'0 0.0
2017-Apr-22 21:28N 20°29' W 086°59'0 0.0
2017-Apr-22 20:58N 20°29' W 086°59'0 0.0
2017-Apr-22 20:28N 20°29' W 086°59'0 0.0
2017-Apr-22 19:58N 20°29' W 086°59'0 0.0
2017-Apr-22 19:28N 20°29' W 086°59'0 0.0
2017-Apr-22 18:55N 20°29' W 086°59'0 0.0
2017-Apr-22 18:29N 20°29' W 086°59'0 0.0
2017-Apr-22 17:59N 20°29' W 086°59'0 0.0
2017-Apr-22 17:29N 20°29' W 086°59'0 0.0
2017-Apr-22 16:58N 20°29' W 086°59'0 0.0
2017-Apr-22 16:29N 20°29' W 086°59'0 0.0
2017-Apr-22 16:00N 20°29' W 086°59'3 5.4
2017-Apr-22 15:30N 20°31' W 086°59'510.9
2017-Apr-22 15:00N 20°36' W 086°57'6421.1
2017-Apr-22 12:00N 21°12' W 086°00'16716.7 180 / 61008.010.8 25.023.626.0
2017-Apr-22 02:00N 23°06' W 083°48'255 9.7 130 / 251019.010.8 25.018.825.0
2017-Apr-20 23:44N 25°18' W 079°48'314.1
2017-Apr-20 23:30N 25°21' W 079°48'714.0
2017-Apr-20 22:59N 25°28' W 079°48'613.2
2017-Apr-20 22:30N 25°35' W 079°50'713.1
2017-Apr-20 22:00N 25°39' W 079°55'612.8
2017-Apr-20 21:30N 25°43' W 080°01'5 9.9
2017-Apr-20 21:01N 25°46' W 080°05'4 8.3
2017-Apr-20 20:31N 25°47' W 080°10'0 0.8
2017-Apr-20 20:00N 25°47' W 080°10'0 0.0
2017-Apr-20 19:30N 25°47' W 080°10'0 0.0
2017-Apr-20 18:57N 25°47' W 080°10'0 0.0
2017-Apr-20 18:27N 25°47' W 080°10'0 0.0
2017-Apr-20 18:00N 25°47' W 080°10'0 0.0
2017-Apr-20 17:30N 25°47' W 080°10'0 0.0
2017-Apr-20 16:57N 25°47' W 080°10'0 0.0
2017-Apr-20 16:27N 25°47' W 080°10'0 0.0
2017-Apr-20 15:57N 25°47' W 080°10'0 0.0
2017-Apr-20 15:27N 25°47' W 080°10'0 0.0
2017-Apr-20 14:57N 25°47' W 080°10'0 0.0
2017-Apr-20 14:24N 25°47' W 080°10'0 0.0
2017-Apr-20 13:30N 25°47' W 080°10'0 0.0
2017-Apr-20 12:57N 25°47' W 080°10'0 0.0
2017-Apr-20 12:30N 25°47' W 080°10'0 0.0
2017-Apr-20 12:00N 25°47' W 080°10'1 1.6
2017-Apr-20 11:31N 25°47' W 080°11'2 4.4
2017-Apr-20 11:00N 25°46' W 080°09'612.1
2017-Apr-20 10:30N 25°46' W 080°02'612.8
2017-Apr-20 10:01N 25°42' W 079°57'1019.1
2017-Apr-20 09:30N 25°32' W 079°56'36111.8
2017-Apr-19 03:00N 20°00' W 082°30'83 7.6 080 / 181015.0 5.4 26.026.025.0
2017-Apr-18 16:00N 19°12' W 081°18'   050 / 181014.010.8 27.025.625.0
2017-Apr-16 03:00N 24°18' W 079°24'6819.9 080 / 401019.010.8 24.019.425.0
2017-Apr-15 23:35N 25°21' W 079°51'115.0
2017-Apr-15 23:30N 25°22' W 079°51'714.6
2017-Apr-15 23:01N 25°29' W 079°54'714.4
2017-Apr-15 22:30N 25°36' W 079°56'714.4
2017-Apr-15 22:00N 25°43' W 079°59'612.6
2017-Apr-15 21:31N 25°46' W 080°05'5 9.8
2017-Apr-15 21:00N 25°47' W 080°10'0 0.2
2017-Apr-15 20:30N 25°47' W 080°10'0 0.0
2017-Apr-15 19:59N 25°47' W 080°10'0 0.0
2017-Apr-15 19:29N 25°47' W 080°10'0 0.0
2017-Apr-15 18:59N 25°47' W 080°10'0 0.0
2017-Apr-15 18:29N 25°47' W 080°10'0 0.0
2017-Apr-15 17:59N 25°47' W 080°10'0 0.0
2017-Apr-15 17:26N 25°47' W 080°10'0 0.0
2017-Apr-15 16:59N 25°47' W 080°10'0 0.0
2017-Apr-15 16:29N 25°47' W 080°10'0 0.0
2017-Apr-15 15:53N 25°47' W 080°10'0 0.0
2017-Apr-15 15:29N 25°47' W 080°10'0 0.0
2017-Apr-15 14:59N 25°47' W 080°10'0 0.0
2017-Apr-15 13:59N 25°47' W 080°10'0 0.0
2017-Apr-15 13:29N 25°47' W 080°10'0 0.0
2017-Apr-15 12:53N 25°47' W 080°10'0 0.0
2017-Apr-15 12:26N 25°47' W 080°10'0 0.0
2017-Apr-15 11:59N 25°47' W 080°10'0 0.0
2017-Apr-15 11:30N 25°47' W 080°10'2 3.9
2017-Apr-15 11:00N 25°46' W 080°08'510.5
2017-Apr-15 10:31N 25°47' W 080°03'510.0
2017-Apr-15 10:00N 25°49' W 079°58'5 9.8
2017-Apr-15 09:30N 25°52' W 079°53'612.8
2017-Apr-15 09:00N 25°56' W 079°47'1713.4
2017-Apr-15 07:45N 26°05' W 079°32'  
Track history (hours):
 
Tides and Currents Weather Stations Pressure Air Temp Water Temp Dewpoint Dewpoint Depression Visibility Wind Speed Wind Dir Waves Ship Positions

Sensation

Last reported at 2017-Apr-25 00:13 UTC. Time now 2017-Apr-25 02:52 UTC.
Position N 26°12' W 079°18'.

Type: Passenger vessel. MMSI: 309697000.

Date/timePositionNaut miles runAvg speedWind from/ knotsBaromVisibWave heightAir tempDewpointWater temp
2017-Apr-25 00:13N 26°12' W 079°18'315.2
2017-Apr-24 23:59N 26°10' W 079°21'715.6
2017-Apr-24 23:30N 26°06' W 079°28'815.6
2017-Apr-24 23:00N 26°02' W 079°36'816.8
2017-Apr-24 22:30N 25°56' W 079°42'918.4
2017-Apr-24 22:00N 25°52' W 079°52'918.6
2017-Apr-24 21:30N 25°48' W 080°01'713.2
2017-Apr-24 21:00N 25°46' W 080°08'2 4.5
2017-Apr-24 20:28N 25°47' W 080°10'0 0.0
2017-Apr-24 19:58N 25°47' W 080°10'0 0.0
2017-Apr-24 19:28N 25°47' W 080°10'0 0.0
2017-Apr-24 18:58N 25°47' W 080°10'0 0.0
2017-Apr-24 18:25N 25°47' W 080°10'0 0.0
2017-Apr-24 17:58N 25°47' W 080°10'0 0.0
2017-Apr-24 17:25N 25°47' W 080°10'0 0.0
2017-Apr-24 16:55N 25°47' W 080°10'0 0.0
2017-Apr-24 16:28N 25°47' W 080°10'0 0.0
2017-Apr-24 15:58N 25°47' W 080°10'0 0.0
2017-Apr-24 15:28N 25°47' W 080°10'0 0.0
2017-Apr-24 14:58N 25°47' W 080°10'0 0.0
2017-Apr-24 14:28N 25°47' W 080°10'0 0.0
2017-Apr-24 13:28N 25°47' W 080°10'0 0.0
2017-Apr-24 12:58N 25°47' W 080°10'0 0.0
2017-Apr-24 12:28N 25°47' W 080°10'0 0.0
2017-Apr-24 11:58N 25°47' W 080°10'0 0.5
2017-Apr-24 11:31N 25°47' W 080°10'1 2.2
2017-Apr-24 11:01N 25°46' W 080°09'510.9
2017-Apr-24 10:30N 25°46' W 080°03'510.7
2017-Apr-24 10:01N 25°44' W 079°58'4 8.4
2017-Apr-24 09:31N 25°40' W 079°57'612.0
2017-Apr-24 09:01N 25°34' W 079°56'611.8
2017-Apr-24 08:30N 25°28' W 079°56'4011.4
2017-Apr-24 05:00N 24°48' W 080°00'6120.2 310 / 101007.010.8 24.022.525.4
2017-Apr-24 02:00N 24°06' W 080°48'18118.1 350 / 151010.010.8 26.024.625.0
2017-Apr-23 16:00N 23°06' W 083°54'22317.2 320 / 101010.010.8 26.024.625.0
2017-Apr-23 03:01N 20°39' W 086°55'018.6
2017-Apr-23 03:00N 20°39' W 086°55'715.0
2017-Apr-23 02:31N 20°33' W 086°59'4 7.8
2017-Apr-23 02:00N 20°29' W 086°59'0 0.4
2017-Apr-23 01:29N 20°29' W 086°59'0 0.0
2017-Apr-23 00:59N 20°29' W 086°59'0 0.0
2017-Apr-23 00:23N 20°29' W 086°59'0 0.0
2017-Apr-22 23:59N 20°29' W 086°59'0 0.0
2017-Apr-22 23:28N 20°29' W 086°59'0 0.0
2017-Apr-22 22:58N 20°29' W 086°59'0 0.0
2017-Apr-22 22:28N 20°29' W 086°59'0 0.0
2017-Apr-22 21:58N 20°29' W 086°59'0 0.0
2017-Apr-22 21:28N 20°29' W 086°59'0 0.0
2017-Apr-22 20:58N 20°29' W 086°59'0 0.0
2017-Apr-22 20:28N 20°29' W 086°59'0 0.0
2017-Apr-22 19:58N 20°29' W 086°59'0 0.0
2017-Apr-22 19:28N 20°29' W 086°59'0 0.0
2017-Apr-22 18:55N 20°29' W 086°59'0 0.0
2017-Apr-22 18:29N 20°29' W 086°59'0 0.0
2017-Apr-22 17:59N 20°29' W 086°59'0 0.0
2017-Apr-22 17:29N 20°29' W 086°59'0 0.0
2017-Apr-22 16:58N 20°29' W 086°59'0 0.0
2017-Apr-22 16:29N 20°29' W 086°59'0 0.0
2017-Apr-22 16:00N 20°29' W 086°59'3 5.4
2017-Apr-22 15:30N 20°31' W 086°59'510.9
2017-Apr-22 15:00N 20°36' W 086°57'6421.1
2017-Apr-22 12:00N 21°12' W 086°00'16716.7 180 / 61008.010.8 25.023.626.0
2017-Apr-22 02:00N 23°06' W 083°48'255 9.7 130 / 251019.010.8 25.018.825.0
2017-Apr-20 23:44N 25°18' W 079°48'314.1
2017-Apr-20 23:30N 25°21' W 079°48'714.0
2017-Apr-20 22:59N 25°28' W 079°48'613.2
2017-Apr-20 22:30N 25°35' W 079°50'713.1
2017-Apr-20 22:00N 25°39' W 079°55'612.8
2017-Apr-20 21:30N 25°43' W 080°01'5 9.9
2017-Apr-20 21:01N 25°46' W 080°05'4 8.3
2017-Apr-20 20:31N 25°47' W 080°10'0 0.8
2017-Apr-20 20:00N 25°47' W 080°10'0 0.0
2017-Apr-20 19:30N 25°47' W 080°10'0 0.0
2017-Apr-20 18:57N 25°47' W 080°10'0 0.0
2017-Apr-20 18:27N 25°47' W 080°10'0 0.0
2017-Apr-20 18:00N 25°47' W 080°10'0 0.0
2017-Apr-20 17:30N 25°47' W 080°10'0 0.0
2017-Apr-20 16:57N 25°47' W 080°10'0 0.0
2017-Apr-20 16:27N 25°47' W 080°10'0 0.0
2017-Apr-20 15:57N 25°47' W 080°10'0 0.0
2017-Apr-20 15:27N 25°47' W 080°10'0 0.0
2017-Apr-20 14:57N 25°47' W 080°10'0 0.0
2017-Apr-20 14:24N 25°47' W 080°10'0 0.0
2017-Apr-20 13:30N 25°47' W 080°10'0 0.0
2017-Apr-20 12:57N 25°47' W 080°10'0 0.0
2017-Apr-20 12:30N 25°47' W 080°10'0 0.0
2017-Apr-20 12:00N 25°47' W 080°10'1 1.6
2017-Apr-20 11:31N 25°47' W 080°11'2 4.4
2017-Apr-20 11:00N 25°46' W 080°09'612.1
2017-Apr-20 10:30N 25°46' W 080°02'612.8
2017-Apr-20 10:01N 25°42' W 079°57'1019.1
2017-Apr-20 09:30N 25°32' W 079°56'36111.8
2017-Apr-19 03:00N 20°00' W 082°30'83 7.6 080 / 181015.0 5.4 26.026.025.0
2017-Apr-18 16:00N 19°12' W 081°18'   050 / 181014.010.8 27.025.625.0
2017-Apr-16 03:00N 24°18' W 079°24'6819.9 080 / 401019.010.8 24.019.425.0
2017-Apr-15 23:35N 25°21' W 079°51'115.0
2017-Apr-15 23:30N 25°22' W 079°51'714.6
2017-Apr-15 23:01N 25°29' W 079°54'714.4
2017-Apr-15 22:30N 25°36' W 079°56'714.4
2017-Apr-15 22:00N 25°43' W 079°59'612.6
2017-Apr-15 21:31N 25°46' W 080°05'5 9.8
2017-Apr-15 21:00N 25°47' W 080°10'0 0.2
2017-Apr-15 20:30N 25°47' W 080°10'0 0.0
2017-Apr-15 19:59N 25°47' W 080°10'0 0.0
2017-Apr-15 19:29N 25°47' W 080°10'0 0.0
2017-Apr-15 18:59N 25°47' W 080°10'0 0.0
2017-Apr-15 18:29N 25°47' W 080°10'0 0.0
2017-Apr-15 17:59N 25°47' W 080°10'0 0.0
2017-Apr-15 17:26N 25°47' W 080°10'0 0.0
2017-Apr-15 16:59N 25°47' W 080°10'0 0.0
2017-Apr-15 16:29N 25°47' W 080°10'0 0.0
2017-Apr-15 15:53N 25°47' W 080°10'0 0.0
2017-Apr-15 15:29N 25°47' W 080°10'0 0.0
2017-Apr-15 14:59N 25°47' W 080°10'0 0.0
2017-Apr-15 13:59N 25°47' W 080°10'0 0.0
2017-Apr-15 13:29N 25°47' W 080°10'0 0.0
2017-Apr-15 12:53N 25°47' W 080°10'0 0.0
2017-Apr-15 12:26N 25°47' W 080°10'0 0.0
2017-Apr-15 11:59N 25°47' W 080°10'0 0.0
2017-Apr-15 11:30N 25°47' W 080°10'2 3.9
2017-Apr-15 11:00N 25°46' W 080°08'510.5
2017-Apr-15 10:31N 25°47' W 080°03'510.0
2017-Apr-15 10:00N 25°49' W 079°58'5 9.8
2017-Apr-15 09:30N 25°52' W 079°53'612.8
2017-Apr-15 09:00N 25°56' W 079°47'1713.4
2017-Apr-15 07:45N 26°05' W 079°32'  

Dump ship's entire track history